EW9824 Weather Reports


Display with metric or nautical units.
time (UTC)temp
F
wind
direction
speed
MPH
gust
MPH
rain 1hr
in
rain 24hr
in
rain mn
in
humidity
%
barometer
mb
20260906231532 58 154 2.0 5.0 0.01 0.20 0.16 88 1020.4
20260906230031 58 173 2.0 6.0 0.02 0.20 0.16 88 1020.4
20260906224608 58 167 2.0 5.0 0.02 0.20 0.15 88 1020.4
20260906223106 57 161 1.0 5.0 0.02 0.19 0.15 89 1020.5
20260906221530 56 148 1.0 4.0 0.02 0.19 0.14 90 1020.5
20260906220031 56 161 2.0 4.0 0.02 0.18 0.14 91 1020.5
20260906214531 55 165 2.0 5.0 0.02 0.18 0.13 92 1020.4
20260906213032 55 147 3.0 5.0 0.02 0.17 0.13 92 1020.4
20260906211532 55 124 2.0 5.0 0.02 0.17 0.12 93 1020.4
20260906210031 54 164 1.0 4.0 0.02 0.16 0.12 93 1020.4
20260906204529 54 191 2.0 4.0 0.03 0.16 0.11 93 1020.3
20260906201531 54 142 1.0 3.0 0.03 0.15 0.10 94 1020.2
20260906194530 53 22 0.0 1.0 0.02 0.13 0.09 95 1020.2
20260906193033 53 22 0.0 1.0 0.02 0.13 0.08 95 1020.2
20260906190028 53 322 3.0 8.0 0.02 0.12 0.07 95 1020.1
20260906184605 53 308 2.0 5.0 0.01 0.11 0.07 96 1020.1
20260906183032 52 346 2.0 6.0 0.02 0.11 0.06 97 1020.0
20260906181530 52 338 3.0 7.0 0.01 0.10 0.06 98 1020.1
20260906180107 52 356 4.0 8.0 0.01 0.10 0.06 98 1020.1
20260906174530 52 347 4.0 9.0 0.02 0.10 0.05 98 1020.0
20260906173029 53 343 4.0 9.0 0.01 0.09 0.05 98 1019.9
20260906171530 53 318 3.0 10.0 0.01 0.09 0.05 98 1019.9
20260906170031 53 289 3.0 6.0 0.01 0.09 0.04 98 1019.8
20260906164531 53 300 3.0 7.0 0.00 0.08 0.04 98 1019.8
20260906163029 52 278 2.0 4.0 0.01 0.08 0.04 98 1019.8
20260906161528 52 259 2.0 4.0 0.01 0.08 0.04 98 1019.7
20260906154529 52 238 1.0 3.0 0.01 0.08 0.03 98 1019.7
20260906151529 52 135 0.0 0.0 0.00 0.07 0.03 98 1019.4
20260906150040 51 135 0.0 1.0 0.01 0.07 0.03 98 1019.3
20260906144531 51 135 0.0 0.0 0.01 0.07 0.03 98 1019.1
20260906143028 51 135 0.0 0.0 0.01 0.07 0.03 98 1019.0
20260906141530 51 135 0.0 0.0 0.01 0.07 0.02 98 1018.8
20260906140031 51 135 0.0 0.0 0.00 0.06 0.02 98 1018.6
20260906133029 51 157 0.0 2.0 0.00 0.06 0.02 98 1018.5
20260906131531 51 157 0.0 2.0 0.00 0.06 0.02 98 1018.5
20260906123103 51 206 0.0 0.0 0.00 0.06 0.02 98 1018.7
20260906121539 51 216 0.0 2.0 0.00 0.06 0.02 98 1018.7
20260906120031 51 158 0.0 3.0 0.00 0.06 0.02 98 1018.7
20260906114527 51 188 0.0 2.0 0.00 0.06 0.02 98 1018.8
20260906113107 51 116 0.0 1.0 0.00 0.06 0.02 98 1018.9
20260906111531 51 153 0.0 0.0 0.00 0.06 0.02 98 1018.9
20260906110033 51 157 0.0 2.0 0.01 0.06 0.02 98 1018.9
20260906104529 51 157 0.0 1.0 0.01 0.06 0.02 98 1019.1
20260906103029 51 173 0.0 0.0 0.01 0.06 0.02 98 1019.3
20260906101527 51 202 0.0 0.0 0.01 0.06 0.01 97 1019.4
20260906100028 52 173 1.0 3.0 0.00 0.05 0.01 97 1019.4
20260906093029 52 157 1.0 2.0 0.00 0.05 0.01 97 1019.5
20260906091532 51 138 2.0 4.0 0.00 0.05 0.01 97 1019.4
20260906090032 51 135 0.0 3.0 0.00 0.06 0.01 97 1019.5
20260906084530 51 174 0.0 2.0 0.00 0.06 0.01 97 1019.5
20260906080033 51 157 1.0 3.0 0.01 0.06 0.01 97 1019.3
20260906074528 51 135 0.0 3.0 0.01 0.07 0.01 97 1019.2
20260906071541 50 167 1.0 3.0 0.00 0.06 0.00 97 1019.4
20260906063027 50 152 1.0 4.0 0.00 0.07 0.06 96 1019.7
20260906061530 50 159 2.0 5.0 0.00 0.07 0.06 96 1019.7
20260906060106 50 174 1.0 4.0 0.00 0.07 0.06 96 1019.8
20260906054531 51 155 2.0 4.0 0.01 0.07 0.06 96 1019.8
20260906053103 51 139 3.0 5.0 0.01 0.07 0.06 96 1019.9
20260906051533 51 141 2.0 4.0 0.01 0.07 0.06 95 1020.0
20260906044533 51 157 1.0 3.0 0.00 0.06 0.05 95 1020.1
20260906043030 52 168 1.0 3.0 0.00 0.06 0.05 95 1020.2
20260906041531 52 175 1.0 4.0 0.00 0.06 0.05 94 1020.2
20260906034531 53 169 1.0 4.0 0.00 0.06 0.05 94 1020.0
20260906033030 54 150 2.0 5.0 0.00 0.06 0.05 94 1019.8
20260906031603 54 176 3.0 7.0 0.01 0.06 0.05 92 1019.7
20260906030030 54 165 2.0 4.0 0.01 0.06 0.05 90 1019.6
20260906024532 55 157 1.0 3.0 0.01 0.06 0.05 89 1019.6
20260906021532 57 165 1.0 2.0 0.00 0.05 0.04 86 1019.6
20260906020029 58 180 0.0 2.0 0.00 0.05 0.04 84 1019.7
20260906014529 59 181 0.0 2.0 0.01 0.05 0.04 81 1019.6
20260906013030 59 202 0.0 2.0 0.01 0.05 0.04 79 1019.6
20260906011528 60 225 2.0 4.0 0.01 0.05 0.04 80 1019.8
20260906003032 60 275 3.0 6.0 0.01 0.04 0.03 84 1020.1
20260906001530 60 260 3.0 6.0 0.01 0.04 0.03 87 1020.2
20260906000030 59 77 2.0 8.0 0.01 0.04 0.03 87 1020.1
20260905234529 59 94 4.0 11.0 0.01 0.04 0.02 85 1020.2
20260905233028 60 149 2.0 5.0 0.00 0.03 0.02 81 1020.4